Location: Unspecified
(43.4354°N, 0.0000°E)
Time: 04:54:22
(UTC+00:00)

A-11 Canister half - Pass Details

Date: 28 June 2019
Orbit: 1514 x 1685 km, 47.2° (Epoch: 19 July)

Event Time Altitude Azimuth Distance (km) Brightness Sun altitude
Rises 11:13:34 0° 266° (W) 4,908 11.5 67.4°
Reaches altitude 10° 11:16:47 10° 269° (W) 3,905 11.1 67.7°
Maximum altitude 11:26:47 72° 354° (N) 1,684 10.3 68.5°
Drops below altitude 10° 11:36:25 10° 79° (E) 3,773 11.2 69.1°
Sets 11:39:28 0° 82° (E) 4,735 11.6 69.3°
